www.pogodaiklimat.ru

Погода и климат >> Архив погоды >> Украина >> Жмеринка


ПОГОДА в Жмеринке

  • Прогноз погоды в Жмеринке
  • Монитор погоды в Жмеринке
  • Климат города

АРХИВ ПОГОДЫ в Жмеринке

Время (UTC), дата Ветер
(напр.,м/с)
 
Видим.   Явления Облачность Т
(С)
Тd
(С)
f
(%)
Тe
(С)
Тes
(С)
Комфортность P
(гПа)
Po
(гПа)
Тmin
(С)
Tmax
(С)
R
(мм)
R24
(мм)
S
(см)
15 17.11 Ю 2 10 км 10 баллов +2.8 -0.8 77 0.0
18 17.11 СЗ 1 4000 м 10 баллов +2.5 +0.1 84 0.0 +3.3
21 17.11 Ю 1 4000 м 10/8 600 м
[Sc Ac und]
+2.5 +0.4 86 +1 +1 0.9 1023.0
00 18.11 штиль 0 4000 м дымка 10 баллов +2.4 +0.8 89 0.0
03 18.11 штиль 0 4000 м дымка 10 баллов +2.2 +0.6 89 0.0
06 18.11 штиль 0 4000 м дымка 10 баллов +2.2 +0.9 91 0.0 +2.0
09 18.11 штиль 0 4000 м дымка 10 баллов +3.6 +1.3 85 0.0
12 18.11 штиль 0 10 км 10 баллов +4.8 +1.5 79 0.0
15 18.11 Ю 1 4000 м слабый дождь 10 баллов +4.0 +2.0 87 0.0
18 18.11 ЮЗ 1 4000 м в посл. час ливневой дождь 10 баллов +3.5 +2.6 94 0.0 +5.2 1
21 18.11 ЮЗ 1 4000 м слабый ливневой дождь 10 баллов +3.4 +2.7 95 0.0
00 19.11 ЮЗ 1 4000 м дымка 10 баллов +3.4 +2.7 95 0.0 1.0
03 19.11 З 1 4000 м слабый дождь 10 баллов +3.4 +2.7 95 0.0
06 19.11 З 1 4000 м дымка 10 баллов +3.2 +1.9 91 0.0 +3.1 3
09 19.11 СЗ 2 4000 м дымка 10 баллов +3.6 +2.3 91 0.0
12 19.11 СЗ 2 10 км 9 баллов +3.8 +1.5 85 0.0
15 19.11 З 2 10 км 9/9 600 м
[Sc]
+3.0 +0.1 81 0 0 1010.4 1010.0
18 19.11 З 1 4000 м ясно +1.4 -1.2 83 0.0 +4.5
21 19.11 СЗ 2 4000 м дымка ясно +0.4 -0.5 94 -3 -3 1011.8 1012.0
00 20.11 штиль 0 4000 м дымка ясно -1.0 -2.4 90 1349.5
03 20.11 штиль 0 4000 м дымка ясно -2.4 -3.0 96 -4 -4 1011.5 1012.0
06 20.11 ЮЗ 1 1000 м дымка ясно -4.0 -4.1 99 0.0 -4.0
09 20.11 ЮЗ 1 10 км в посл. час туман 7 баллов +1.1 -1.5 83 0.0
12 20.11 СЗ 2 10 км 7 баллов +3.7 -0.9 72 0.0
15 20.11 СЗ 1 10 км 6/5 600 м
[Sc Ac trans]
+2.4 -1.9 73 +1 +1 1010.9 1011.0
18 20.11 СЗ 4 4000 м 9 баллов +2.6 -2.3 70 1349.1 +3.9
21 20.11 СЗ 6 4000 м 8/4 600 м
[Sc Ac trans]
+1.7 -2.1 76 -4 -4 1011.7 1012.0
00 21.11 СЗ 5 4000 м 10 баллов +0.8 -2.1 81 0.0
03 21.11 СЗ 3 4000 м 10 баллов +0.5 -1.7 85 0.0
06 21.11 СЗ 2 10 км 7 баллов +0.2 -2.2 84 0.0 +0.1
09 21.11 СЗ 3 н/о слабый ливневой снег н/о +0.4 -1.0 90 -4 1015.0 977.3
12 21.11 СЗ 3 10 км в посл. час ливневой снег 9 баллов +1.6 -0.6 85 1353.2 0.3
15 21.11 СЗ 1 10 км 8/4 600 м
[Sc Ac trans]
+0.3 -2.4 82 -2 -2 1013.8 1014.0
18 21.11 З 2 4000 м 9 баллов +0.3 -2.1 84 0.0 +2.2 0.3
21 21.11 СЗ 2 4000 м 10 баллов +0.1 -2.0 86 0.0
00 22.11 З 2 4000 м 7 баллов -0.6 -2.6 86 0.0
03 22.11 З 1 4000 м дымка 2 балла -1.5 -2.6 92 509.4
06 22.11 штиль 0 н/о дымка 8 баллов -2.3 -3.1 94 -4 1018.2 980.0
09 22.11 штиль 0 10 км 9/3 600 м
[Sc Ac trans]
+0.2 -3.1 78 -1 0 1016.6 1017.0
12 22.11 штиль 0 10 км 4 балла +1.2 -4.0 68 0.0
15 22.11 штиль 0 10 км 3/0
[Ac trans]
-0.6 -2.7 86 -2 -2 1017.3 1017.0
18 22.11 штиль 0 4000 м дымка ясно -2.2 -3.0 94 0.0 +1.5
21 22.11 штиль 0 4000 м дымка ясно -3.6 -4.4 94 -5 -5 1020.1 1020.0
00 23.11 штиль 0 4000 м дымка ясно -4.8 -5.8 93 1362.1
03 23.11 штиль 0 4000 м дымка ясно -5.6 -6.7 92 -7 -7 1022.1 1022.0
06 23.11 штиль 0 4000 м дымка 2 балла -6.4 -7.2 94 0.0 -6.6
09 23.11 СЗ 3 4000 м дымка 6 баллов +0.5 -0.9 90 0.0
12 23.11 Ю 2 10 км 6 баллов +2.2 -4.1 63 0.0
15 23.11 ЮВ 1 10 км ясно -0.1 -4.2 74 -2 -2 1022.6 1023.0
18 23.11 ЮВ 1 4000 м ясно -1.3 -4.5 79 0.0 +2.4
21 23.11 Ю 1 4000 м ясно -1.9 -6.0 74 -4 -4 1023.3 1023.0
00 24.11 ЮВ 1 4000 м ясно -2.5 -5.6 79 1364.5
03 24.11 штиль 0 4000 м ясно -2.9 -5.3 83 -4 -4 1022.4 1022.0
06 24.11 ЮВ 1 10 км 7 баллов -3.6 -5.7 85 0.0 -3.8
09 24.11 Ю 2 10 км 9/8 600 м
[Sc Ac trans]
+0.5 -1.8 85 -3 -3 1023.2 1023.0
12 24.11 ЮЗ 3 10 км 9 баллов +1.8 -1.3 80 0.0

 

Местоположение метеостанции Жмеринка (Винницкая область, Украина): широта 49.05 долгота 28.10 высота над уровнем моря 304 м.

В архиве по умолчанию представлена погода в Жмеринке за последнюю неделю. Архивные данные за месяц целиком и за предыдущие месяцы, начиная с января 2011 года, Вы можете получить, выбрав интересующий диапазон дат из раскрывающегося списка и нажав кнопку "Ввод!".

Внимание! Время в таблицах - всемирное. Для получения местного времени необходимо прибавить поправку, которая в Жмеринке равна 2 ч.

Смотрите также архив погоды в соседних городах и на ближайших метеорологических станциях:

Погода в Виннице (Винницкая область, Украина) (42 км)
Погода в Хмельнике (Винницкая область, Украина) (51 км)
Погода в Новой Ушице (Хмельницкая область, Украина) (65 км)
Погода в Могилев-Подольском (Винницкая область, Украина) (71 км)
Погода в Новоднестровске (Черновицкая область, Украина) (72 км)
Погода в Хмельницком (Хмельницкая область, Украина) (92 км)
Погода в Сороках (Молдова) (96 км)
Погода в Гайсине (Винницкая область, Украина) (99 км)
Погода в Белополе (Винницкая область, Украина) (103 км)
Погода в Бричанах (Молдова) (108 км)

Пояснения к столбцам:

Ветер - указаны скорость ветра в м/с - средняя за 10 мин, порывы в срок и между сроками (в фигурных скобках) и направление, откуда дует ветер: С - северный, СВ - северо-восточный, В - восточный, ЮВ - юго-восточный, Ю - южный, ЮЗ - юго-западный, З - западный, СЗ - северо-западный.
Видимость - горизонтальная дальность видимости в метрах или километрах. При видимости от 1 до 10 км при отсутствии осадков обычно наблюдается дымка, при ухудшении видимости до 1 км и менее - туман. В сухую погоду видимость может ухудшаться дымом, пылью или мглою.
Явления - указаны атмосферные явления, наблюдавшиеся в срок или в последний час перед сроком; фигурными скобками обозначены явления, наблюдавшиеся между сроками (за 1-3 часа до срока); квадратными скобками обозначены град или гололедные отложения с указанием их диаметра в мм.
Облачность - указаны через наклонную черту общая и нижняя облачность в баллах и высота нижней границы облаков в метрах; квадратными скобками обозначены формы облаков: Ci - перистые, Cs - перисто-слоистые, Cc - перисто-кучевые, Ac - высококучевые, As - высокослоистые, Sc - слоисто-кучевые, Ns - слоисто-дождевые, Cu - кучевые, Cb - кучево-дождевые. Подробнее классификацию облаков см. в Атласе облаков (PDF).
T - Температура воздуха - температура, измеренная на высоте 2 м над землей.
Td - Температура точки росы - температура, при понижении до которой содержащийся в воздухе водяной пар достигнет насыщения.
f - Относительная влажность воздуха - влажноcть воздуха, измеренная на высоте 2 м над землей.
Te - Эффективная температура - температура, которую ощущает одетый по сезону человек в тени. Характеристика душности погоды. При расчете учитывается влияние влажности воздуха и скорости ветра на теплоощущения человека.
Tes - Эффективная температура на солнце - температура, которую ощущает человек, с поправкой на солнечный нагрев. Характеристика знойности погоды. Зависит от высоты солнца над горизонтом, облачности и скорости ветра. Ночью, в пасмурную погоду, а также при ветре 12 м/с и более поправка равна нулю.
P - Атмосферное давление - приведенное к уровню моря атмосферное давление.
Po - Атмосферное давление - измеренное на уровне метеостанции атмосферное давление.
Tmin - Минимальная температура - минимум температуры воздуха на высоте 2 м над землей.
Tmax - Максимальная температура - максимум температуры воздуха на высоте 2 м над землей.
R - Количество осадков - Количество выпавших осадков за период времени, мм. При наведении курсора мыши на число - период времени, за который выпало указанное количество осадков.
R24 - Количество осадков - Количество выпавших осадков за 24 часа, мм.
S - Снежный покров - Высота снежного покрова, см. При наведении курсора мыши на число - состояние снежного покрова и степень покрытия местности в баллах.